Miscellaneous Local Product
Issued by NWS North Platte, NE

Home | Current Version | Previous Version | Graphics & Text | Print | Product List | Glossary On
Versions: 1 2 3 4 5 6 7 8 9 10 11 12 13 14 15 16 17 18 19 20 21 22 23 24 25 26 27 28 29 30 31 32 33 34 35 36 37 38 39 40 41 42 43 44 45 46 47 48 49 50
000
AXUS43 KLBF 301710
MISLBF


WESTERN AND NORTH CENTRAL NEBRASKA HOURLY WEATHER ROUNDUP
NATIONAL WEATHER SERVICE NORTH PLATTE NE
1100 AM CST FRI JAN 30 2015

***STATIONS NOT REPORTING VARIABLES SUCH AS SKY/WEATHER OR
PRESSURE ARE PROVIDED BY THE NEBRASKA DEPARTMENT OF
ROADS...RAWS...AND APRS NETWORKS...AND ARE NOT UNDER
NATIONAL WEATHER SERVICE QUALITY CONTROL***

...OBSERVATIONS IN AND NEAR THE EASTERN PANHANDLE OF NEBRASKA...

CITY           SKY/WX    TMP DP  RH WIND       PRES   REMARKS
PINE RIDGE     PTSUNNY   41  22  46 SW7       30.20R
CHADRON        PTSUNNY   40  23  50 SW7       30.20F
ALLIANCE       PTSUNNY   37  25  61 S8        30.19F WCI  31
SIDNEY         CLOUDY    38  26  62 S7        30.19F WCI  33
WHITECLAY        N/A     40  21  47 S6          N/A
CRESCENT LAKE    N/A     38  26  62 S5          N/A  WCI  34
LISCO            N/A     38  20  49 E6          N/A  WCI  33
LEWELLEN         N/A     37  24  59 S9          N/A  WCI  30
$$

...OBSERVATIONS IN NORTH CENTRAL NEBRASKA...

CITY           SKY/WX    TMP DP  RH WIND       PRES   REMARKS
VALENTINE      PTSUNNY   41  26  55 SW17      30.22F
THEDFORD       CLOUDY    41  25  52 S15G23    30.28S
AINSWORTH      PTSUNNY   36  25  64 S16       30.26F WCI  26
O`NEILL        MOSUNNY   32  29  87 S17       30.34F WCI  21
ORD            CLOUDY    30  25  81 S10       30.37F WCI  21
BROKEN BOW     PTSUNNY   34  26  72 S8        30.33F WCI  27
BROWNLEE         N/A     39  29  66 S17         N/A  WCI  30
VALENTINE NWR    N/A     31  25  77 S9          N/A  WCI  23
SPRINGVIEW       N/A     36  28  73 CALM        N/A
HALSEY           N/A     36  24  60 S9          N/A  WCI  29
BREWSTER         N/A     38  28  67 S7          N/A  WCI  32
ROSE             N/A     34  31  88 SE13        N/A  WCI  25
NEWPORT          N/A     36  29  77 S14         N/A  WCI  27
SARGENT          N/A     32  27  82 S3          N/A
COMSTOCK         N/A     35  31  83 S8          N/A  WCI  29
CHAMBERS         N/A     34  28  77 S3G15       N/A
EWING            N/A     32  28  86 S12G18      N/A  WCI  23
$$

...OBSERVATIONS IN SOUTHWEST NEBRASKA AND FAR NORTHEAST COLORADO...

CITY           SKY/WX    TMP DP  RH WIND       PRES   REMARKS
WRAY           FAIR      43  29  59 S8        30.24F
IMPERIAL       CLOUDY    40  26  57 S12       30.26F WCI  33
OGALLALA       CLOUDY    36  28  71 S8        30.25F WCI  30
NORTH PLATTE   PTSUNNY   39  24  55 S16       30.29F WCI  30
MCCOOK         CLOUDY    41  28  60 S9        30.34F
LEXINGTON      PTSUNNY   34  28  77 S8        30.36F WCI  28
BRADY            N/A     37  26  64 CALM        N/A
GOTHENBURG       N/A     38  25  58 S7          N/A  WCI  33
CALLAWAY         N/A     36  28  73 S18         N/A  WCI  26
$$

...NORTH PLATTE AREA...

CITY           SKY/WX    TMP DP  RH WIND       PRES   REMARKS
AIRPORT        PTSUNNY   39  24  55 S16       30.29F WCI  30
DOWNTOWN         N/A     38  26  61 S9G21       N/A  WCI  31
$$

...SOME WEATHER OBSERVATIONS FROM AROUND THE REGION...

CITY           SKY/WX    TMP DP  RH WIND       PRES   REMARKS
DENVER         CLOUDY    38  25  59 VRB5      30.19R WCI  34
LARAMIE        PTSUNNY   33  26  75 NW3       30.19S
CHEYENNE       CLOUDY    44  24  45 N13       30.17S
SCOTTSBLUFF    PTSUNNY   34  25  69 CALM      30.20F
RAPID CITY     PTSUNNY   38  25  59 NW7       30.18R WCI  33
PIERRE         SUNNY     32  25  75 S10       30.20F WCI  24
WINNER         FAIR      40  25  55 S23G32    30.22F WCI  30
SIOUX FALLS    MOSUNNY   27  21  78 S16       30.40F WCI  15
OMAHA          MOSUNNY   27  18  69 S8        30.53F WCI  19
GRAND ISLAND     N/A     32  27  81 S12       30.43F WCI  23
KANSAS CITY    CLOUDY    29  21  72 E3        30.56R
WICHITA        CLOUDY    37  26  64 S8        30.53F WCI  31
HAYS           CLOUDY    37  23  56 S12       30.44S WCI  30
LIBERAL        CLOUDY    41  27  56 S15       30.41F
GOODLAND       CLOUDY    41  27  57 S21G28    30.27F
$$



USA.gov is the U.S. government's official web portal to all federal, state and local government web resources and services.